Regional Weather Roundup
Issued by NWS

Home | Current Version | Previous Version | Graphics & Text | Print | Product List | Glossary On
Versions: 1 2 3 4 5 6 7 8 9 10 11 12 13 14 15 16 17 18 19 20 21 22 23 24 25 26 27 28 29 30 31 32 33 34 35 36 37 38 39 40 41 42 43 44 45 46 47 48 49 50
144
ASUS44 KLIX 232210
RWRLA
LOUISIANA WEATHER ROUNDUP
NATIONAL WEATHER SERVICE NEW ORLEANS LA
500 PM CDT WED APR 23 2014

NOTE: "FAIR" INDICATES FEW OR NO CLOUDS BELOW 12,000 FEET WITH NO
      SIGNIFICANT WEATHER AND/OR OBSTRUCTIONS TO VISIBILITY.
      SKY/WX - SKY CONDITION AND SIGNIFICANT WEATHER.
      TMP - AIR TEMPERATURE.    DP   - DEWPOINT TEMPERATURE.
      RH  - RELATIVE HUMIDITY.  PRES - PRESSURE.
      HX  - HEAT INDEX.         WCI  - WIND CHILL INDEX.

*  THESE STATIONS ARE NOT NWS OR FAA STATIONS AND ARE NOT UNDER
   NWS QUALITY CONTROL.

LAZ040-048-061>063-065-066-069-232300-
SOUTHEAST LOUISIANA

CITY           SKY/WX    TMP DP  RH WIND       PRES   REMARKS
N.O. AUDUBON     N/A     88  59  38 MISG        N/A
N.O. INTL ARPT MOSUNNY   82  55  39 MISG      29.89F
N.O. LAKEFRONT SUNNY     80  60  50 NW6       29.91F
N.O. DOWNTOWN* CLOUDY    82  54  36 NE7       29.90F
SLIDELL        SUNNY     82  55  39 S9        29.89F
BATON ROUGE    MOSUNNY   85  51  31 NE6       29.89F
BOOTHVILLE     SUNNY     78  59  51 VRB3      29.92F
BELLE CHASSE   PTSUNNY   81  60  48 SE6       29.89F
BOGALUSA*        N/A     85  53  32 E3        29.90F
GALLIANO*      MOCLDY    81  65  59 SW8       29.90F
NEW ROADS*     FAIR      82  52  35 SE3       29.89F
GONZALES*      FAIR      83  54  35 E3        29.88F
HAMMOND*       PTSUNNY   84  54  34 S7        29.91S
HOUMA*         MOSUNNY   81  61  50 S6        29.91S
PORT FOURCHON* CLEAR     77  63  61 S8G14     29.93F

$$

LAZ041-044-053-054-232300-
SOUTHWEST LOUISIANA

CITY           SKY/WX    TMP DP  RH WIND       PRES   REMARKS
LAKE CHARLES   SUNNY     80  63  55 SW9       29.88F
LAFAYETTE      PTSUNNY   81  57  43 CALM      29.88F
PATTERSON      PTSUNNY   81  64  57 S10       29.93F
SALT POINT       N/A     78  68  71 VRB5      29.90F
NEW IBERIA     PTSUNNY   82  62  50 SW10      29.89F
CHENAULT AIRPK MOSUNNY   79  61  53 S9        29.89F

$$

LAZ027-028-232300-
CENTRAL LOUISIANA

CITY           SKY/WX    TMP DP  RH WIND       PRES   REMARKS
FORT POLK      MOSUNNY   83  56  39 SE9       29.87F
ALEXANDRIA INT SUNNY     83  53  35 VRB3      29.87F
ALEXANDRIA     SUNNY     84  51  31 S3        29.88F

$$

LAZ001-002-232300-
NORTHWEST LOUISIANA

CITY           SKY/WX    TMP DP  RH WIND       PRES   REMARKS
SHREVEPORT     MOSUNNY   84  58  40 S9        29.85F
BARKSDALE AFB  SUNNY     82  51  34 SE9       29.86F
DTN SHREVEPORT MOSUNNY   80  56  43 SE8       29.86F

$$

LAZ014-016-232300-
NORTHEAST LOUISIANA

CITY           SKY/WX    TMP DP  RH WIND       PRES   REMARKS
MONROE         SUNNY     81  45  28 E3        29.91F
TALLULAH       SUNNY     81  40  23 NE3       29.91F

$$




USA.gov is the U.S. government's official web portal to all federal, state and local government web resources and services.